Wetterdaten: Mittwoch, 15.01.2020
Datum Zeit Außen Temp. Server Temp. +20m Feuchte Feuchte +20m Luftdruck Regen Wind Richtung Richtung Sonnenschein Helligkeit Solar Taupunkt
15.01.2020 00:00 10,1 °C 11,1 °C 10,5 °C 69 % 57 % 1012,0 hPa 0,00 l/m² 18,9 km/h (3 Bft) S±45° 170 ° 0 min 0 lux 0 W/m² 4,7 °C
15.01.2020 00:15 10,1 °C 11,1 °C 10,5 °C 69 % 56 % 1012,0 hPa 0,00 l/m² 25,3 km/h (4 Bft) S-SW±45° 195 ° 0 min 0 lux 0 W/m² 4,7 °C
15.01.2020 00:30 10,0 °C 11,2 °C 10,3 °C 69 % 57 % 1012,0 hPa 0,00 l/m² 22,7 km/h (4 Bft) S-SO±67.5 165 ° 0 min 0 lux 0 W/m² 4,6 °C
15.01.2020 00:45 10,0 °C 11,2 °C 10,4 °C 68 % 56 % 1012,0 hPa 0,00 l/m² 25,8 km/h (4 Bft) S±45° 180 ° 0 min 0 lux 0 W/m² 4,4 °C
15.01.2020 01:00 10,0 °C 11,2 °C 10,4 °C 68 % 56 % 1012,0 hPa 0,00 l/m² 23,6 km/h (4 Bft) S-SW±67.5 195 ° 0 min 0 lux 0 W/m² 4,4 °C
15.01.2020 01:15 10,0 °C 11,2 °C 10,4 °C 68 % 55 % 1012,0 hPa 0,00 l/m² 23,7 km/h (4 Bft) S±45° 190 ° 0 min 0 lux 0 W/m² 4,4 °C
15.01.2020 01:30 10,0 °C 11,2 °C 10,3 °C 68 % 56 % 1012,0 hPa 0,00 l/m² 22,0 km/h (4 Bft) S±45° 185 ° 0 min 0 lux 0 W/m² 4,4 °C
15.01.2020 01:45 10,2 °C 11,3 °C 10,8 °C 68 % 56 % 1012,0 hPa 0,00 l/m² 28,1 km/h (4 Bft) S-SW±45° 195 ° 0 min 0 lux 0 W/m² 4,6 °C
15.01.2020 02:00 10,4 °C 11,3 °C 10,7 °C 68 % 56 % 1012,0 hPa 0,00 l/m² 24,1 km/h (4 Bft) S±45° 190 ° 0 min 0 lux 0 W/m² 4,8 °C
15.01.2020 02:15 10,2 °C 11,3 °C 10,5 °C 69 % 57 % 1012,0 hPa 0,00 l/m² 20,0 km/h (4 Bft) S±22.5° 180 ° 0 min 0 lux 0 W/m² 4,8 °C
15.01.2020 02:30 10,5 °C 11,4 °C 11,1 °C 68 % 56 % 1011,9 hPa 0,00 l/m² 22,9 km/h (4 Bft) S±67.5° 180 ° 0 min 0 lux 0 W/m² 4,8 °C
15.01.2020 02:45 10,5 °C 11,4 °C 10,9 °C 68 % 56 % 1011,9 hPa 0,00 l/m² 19,7 km/h (3 Bft) S-SW±67.5 200 ° 0 min 0 lux 0 W/m² 4,8 °C
15.01.2020 03:00 10,5 °C 11,4 °C 10,8 °C 68 % 57 % 1011,9 hPa 0,00 l/m² 20,6 km/h (4 Bft) S-SW±45° 195 ° 0 min 0 lux 0 W/m² 4,8 °C
15.01.2020 03:15 10,5 °C 11,5 °C 11,0 °C 68 % 57 % 1011,9 hPa 0,00 l/m² 23,5 km/h (4 Bft) S±22.5° 185 ° 0 min 0 lux 0 W/m² 4,8 °C
15.01.2020 03:30 10,5 °C 11,5 °C 10,9 °C 69 % 57 % 1011,9 hPa 0,00 l/m² 21,4 km/h (4 Bft) S±22.5° 185 ° 0 min 0 lux 0 W/m² 5,1 °C
15.01.2020 03:45 10,4 °C 11,6 °C 10,8 °C 69 % 57 % 1012,0 hPa 0,00 l/m² 20,5 km/h (4 Bft) S-SW±45° 200 ° 0 min 0 lux 0 W/m² 5,0 °C
15.01.2020 04:00 10,3 °C 11,6 °C 10,8 °C 69 % 56 % 1012,0 hPa 0,00 l/m² 18,5 km/h (3 Bft) S-SW±45° 195 ° 0 min 0 lux 0 W/m² 4,9 °C
15.01.2020 04:15 10,4 °C 11,6 °C 10,8 °C 68 % 56 % 1012,0 hPa 0,00 l/m² 21,0 km/h (4 Bft) S-SW±45° 205 ° 0 min 0 lux 0 W/m² 4,8 °C
15.01.2020 04:30 10,5 °C 11,6 °C 10,9 °C 68 % 55 % 1011,9 hPa 0,00 l/m² 23,7 km/h (4 Bft) S-SW±45° 195 ° 0 min 0 lux 0 W/m² 4,8 °C
15.01.2020 04:45 10,5 °C 11,7 °C 10,9 °C 68 % 55 % 1011,9 hPa 0,00 l/m² 21,3 km/h (4 Bft) S-SW±45° 205 ° 0 min 0 lux 0 W/m² 4,8 °C
15.01.2020 05:00 10,5 °C 11,7 °C 11,0 °C 68 % 55 % 1011,9 hPa 0,00 l/m² 22,6 km/h (4 Bft) S-SW±45° 200 ° 0 min 0 lux 0 W/m² 4,8 °C
15.01.2020 05:15 10,4 °C 11,7 °C 10,8 °C 69 % 56 % 1013,0 hPa 0,00 l/m² 18,9 km/h (3 Bft) S±45° 185 ° 0 min 0 lux 0 W/m² 5,0 °C
15.01.2020 05:30 10,3 °C 11,8 °C 10,8 °C 69 % 56 % 1013,0 hPa 0,00 l/m² 23,2 km/h (4 Bft) S-SW±45° 195 ° 0 min 0 lux 0 W/m² 4,9 °C
15.01.2020 05:45 10,2 °C 11,8 °C 10,3 °C 69 % 57 % 1013,0 hPa 0,00 l/m² 20,8 km/h (4 Bft) S±45° 185 ° 0 min 0 lux 0 W/m² 4,8 °C
15.01.2020 06:00 9,9 °C 11,8 °C 10,1 °C 69 % 58 % 1013,0 hPa 0,00 l/m² 22,1 km/h (4 Bft) S±45° 180 ° 0 min 0 lux 0 W/m² 4,5 °C
15.01.2020 06:15 9,6 °C 11,8 °C 9,9 °C 69 % 58 % 1013,1 hPa 0,00 l/m² 19,6 km/h (3 Bft) S-SO±22.5 150 ° 0 min 0 lux 0 W/m² 4,2 °C
15.01.2020 06:30 9,5 °C 11,8 °C 9,9 °C 69 % 57 % 1013,1 hPa 0,00 l/m² 20,1 km/h (4 Bft) S-SO±45° 155 ° 0 min 0 lux 0 W/m² 4,1 °C
15.01.2020 06:45 9,5 °C 11,8 °C 9,8 °C 69 % 57 % 1013,1 hPa 0,00 l/m² 22,8 km/h (4 Bft) SO±22.5° 145 ° 0 min 0 lux 0 W/m² 4,1 °C
15.01.2020 07:00 9,5 °C 11,8 °C 9,8 °C 68 % 57 % 1013,1 hPa 0,00 l/m² 24,5 km/h (4 Bft) S±45° 170 ° 0 min 0 lux 0 W/m² 3,9 °C
15.01.2020 07:15 9,5 °C 11,7 °C 9,7 °C 68 % 56 % 1013,1 hPa 0,00 l/m² 29,6 km/h (5 Bft) S±45° 175 ° 0 min 0 lux 0 W/m² 3,9 °C
15.01.2020 07:30 9,3 °C 11,7 °C 9,6 °C 69 % 57 % 1013,1 hPa 0,00 l/m² 27,6 km/h (4 Bft) S±45° 180 ° 0 min 0 lux 0 W/m² 3,9 °C
15.01.2020 07:30 9,3 °C 11,7 °C 9,6 °C 69 % 57 % 1013,1 hPa 0,00 l/m² 27,6 km/h (4 Bft) S±45° 180 ° 0 min 0 lux 0 W/m² 3,9 °C
15.01.2020 07:45 9,3 °C 11,6 °C 9,6 °C 69 % 57 % 1013,1 hPa 0,00 l/m² 30,5 km/h (5 Bft) S±45° 185 ° 0 min 0 lux 0 W/m² 3,9 °C
15.01.2020 08:00 9,2 °C 11,6 °C 9,5 °C 69 % 58 % 1014,1 hPa 0,00 l/m² 22,3 km/h (4 Bft) S±45° 185 ° 0 min 0 lux 0 W/m² 3,8 °C
15.01.2020 08:16 9,1 °C 11,6 °C 9,3 °C 70 % 59 % 1014,2 hPa 0,00 l/m² 17,3 km/h (3 Bft) S-SO±67.5 165 ° 0 min 138 lux 0 W/m² 3,9 °C
15.01.2020 08:30 9,2 °C 11,6 °C 9,6 °C 70 % 58 % 1014,1 hPa 0,00 l/m² 21,8 km/h (4 Bft) S±45° 175 ° 0 min 358 lux 2 W/m² 4,0 °C
15.01.2020 08:45 9,4 °C 11,6 °C 9,6 °C 70 % 58 % 1014,1 hPa 0,00 l/m² 21,8 km/h (4 Bft) S±45° 170 ° 0 min 1,43 klux 9 W/m² 4,2 °C
15.01.2020 09:00 9,4 °C 11,5 °C 9,6 °C 70 % 59 % 1014,1 hPa 0,00 l/m² 23,3 km/h (4 Bft) S-SO±22.5 165 ° 0 min 1,94 klux 13 W/m² 4,2 °C
15.01.2020 09:15 9,4 °C 11,5 °C 9,5 °C 70 % 58 % 1014,1 hPa 0,00 l/m² 21,2 km/h (4 Bft) S-SO±45° 165 ° 0 min 3,11 klux 20 W/m² 4,2 °C
15.01.2020 09:30 9,2 °C 11,6 °C 9,4 °C 69 % 58 % 1014,1 hPa 0,00 l/m² 21,5 km/h (4 Bft) S-SO±67.5 155 ° 0 min 4,21 klux 27 W/m² 3,8 °C
15.01.2020 09:45 9,4 °C 11,6 °C 9,8 °C 69 % 57 % 1014,1 hPa 0,00 l/m² 28,3 km/h (4 Bft) SO±45° 145 ° 15 min 18,4 klux 120 W/m² 4,0 °C
15.01.2020 10:00 9,6 °C 12,0 °C 10,1 °C 67 % 55 % 1014,1 hPa 0,00 l/m² 22,5 km/h (4 Bft) S-SO±45° 160 ° 15 min 20,8 klux 135 W/m² 3,8 °C
15.01.2020 10:15 9,8 °C 12,7 °C 10,3 °C 67 % 53 % 1014,1 hPa 0,00 l/m² 25,0 km/h (4 Bft) S-SO±45° 160 ° 15 min 23,1 klux 150 W/m² 4,0 °C
15.01.2020 10:30 9,9 °C 13,2 °C 10,5 °C 66 % 52 % 1014,1 hPa 0,00 l/m² 24,5 km/h (4 Bft) S-SO±45° 165 ° 15 min 25,4 klux 165 W/m² 3,9 °C
15.01.2020 10:45 10,1 °C 13,6 °C 10,8 °C 65 % 50 % 1014,0 hPa 0,00 l/m² 21,8 km/h (4 Bft) S-SO±45° 165 ° 15 min 26,9 klux 175 W/m² 3,8 °C
15.01.2020 11:00 10,2 °C 13,9 °C 11,0 °C 64 % 49 % 1014,0 hPa 0,00 l/m² 19,3 km/h (3 Bft) S-SO±45° 165 ° 15 min 28,8 klux 188 W/m² 3,7 °C
15.01.2020 11:15 10,3 °C 14,1 °C 11,4 °C 63 % 48 % 1014,0 hPa 0,00 l/m² 21,7 km/h (4 Bft) S-SO±45° 160 ° 15 min 30,2 klux 197 W/m² 3,6 °C
15.01.2020 11:30 10,5 °C 14,2 °C 11,3 °C 62 % 47 % 1014,0 hPa 0,00 l/m² 29,2 km/h (5 Bft) S±22.5° 170 ° 15 min 31,5 klux 205 W/m² 3,5 °C
15.01.2020 11:45 10,8 °C 14,2 °C 11,6 °C 62 % 47 % 1014,0 hPa 0,00 l/m² 21,5 km/h (4 Bft) S±67.5° 170 ° 15 min 32,3 klux 210 W/m² 3,8 °C
15.01.2020 12:00 11,0 °C 14,2 °C 11,8 °C 61 % 46 % 1014,0 hPa 0,00 l/m² 24,5 km/h (4 Bft) S±45° 180 ° 15 min 33,2 klux 216 W/m² 3,8 °C
15.01.2020 12:15 11,2 °C 14,2 °C 12,0 °C 60 % 45 % 1013,9 hPa 0,00 l/m² 26,8 km/h (4 Bft) S±45° 185 ° 15 min 33,8 klux 220 W/m² 3,7 °C
15.01.2020 12:30 11,4 °C 14,1 °C 12,3 °C 59 % 44 % 1013,9 hPa 0,00 l/m² 25,6 km/h (4 Bft) S±45° 190 ° 15 min 34,4 klux 224 W/m² 3,7 °C
15.01.2020 12:45 11,5 °C 14,2 °C 12,1 °C 59 % 45 % 1013,9 hPa 0,00 l/m² 28,5 km/h (4 Bft) S±45° 175 ° 15 min 34,4 klux 224 W/m² 3,8 °C
15.01.2020 13:00 11,6 °C 14,2 °C 12,1 °C 59 % 45 % 1013,9 hPa 0,00 l/m² 25,1 km/h (4 Bft) S±22.5° 180 ° 15 min 37,7 klux 246 W/m² 3,9 °C
15.01.2020 13:15 11,6 °C 14,3 °C 12,2 °C 59 % 44 % 1013,9 hPa 0,00 l/m² 27,5 km/h (4 Bft) S-SO±45° 165 ° 15 min 36,3 klux 236 W/m² 3,9 °C
15.01.2020 13:30 11,4 °C 14,3 °C 12,0 °C 59 % 45 % 1013,9 hPa 0,00 l/m² 21,3 km/h (4 Bft) SO±45° 140 ° 15 min 36,4 klux 237 W/m² 3,7 °C
15.01.2020 13:45 12,1 °C 14,3 °C 13,2 °C 57 % 42 % 1013,8 hPa 0,00 l/m² 25,0 km/h (4 Bft) SO±45° 130 ° 15 min 41,3 klux 269 W/m² 3,8 °C
15.01.2020 14:00 12,5 °C 14,4 °C 13,4 °C 56 % 41 % 1013,8 hPa 0,00 l/m² 23,3 km/h (4 Bft) SO±67.5° 125 ° 15 min 33,3 klux 217 W/m² 4,0 °C
15.01.2020 14:15 12,7 °C 14,6 °C 13,6 °C 54 % 37 % 1012,7 hPa 0,00 l/m² 15,7 km/h (3 Bft) S±67.5° 180 ° 15 min 30,2 klux 197 W/m² 3,6 °C
15.01.2020 14:30 12,7 °C 14,8 °C 13,5 °C 54 % 38 % 1012,7 hPa 0,00 l/m² 28,3 km/h (4 Bft) S-SW±45° 205 ° 15 min 28,0 klux 182 W/m² 3,6 °C
15.01.2020 14:45 12,4 °C 15,1 °C 12,7 °C 53 % 39 % 1012,8 hPa 0,00 l/m² 24,1 km/h (4 Bft) S-SW±45° 210 ° 15 min 25,2 klux 164 W/m² 3,1 °C
15.01.2020 15:00 12,2 °C 15,2 °C 12,9 °C 52 % 37 % 1012,8 hPa 0,00 l/m² 25,8 km/h (4 Bft) SW±67.5° 215 ° 15 min 24,6 klux 160 W/m² 2,6 °C
15.01.2020 15:15 12,4 °C 15,4 °C 13,1 °C 51 % 37 % 1012,8 hPa 0,00 l/m² 27,6 km/h (4 Bft) S-SW±45° 210 ° 15 min 22,5 klux 147 W/m² 2,6 °C
15.01.2020 15:30 12,2 °C 15,5 °C 12,7 °C 51 % 37 % 1012,8 hPa 0,00 l/m² 29,0 km/h (5 Bft) SW±45° 215 ° 15 min 17,9 klux 117 W/m² 2,4 °C
15.01.2020 15:45 11,9 °C 15,5 °C 12,3 °C 53 % 39 % 1013,9 hPa 0,00 l/m² 31,5 km/h (5 Bft) S-SW±67.5 210 ° 15 min 13,9 klux 91 W/m² 2,6 °C
15.01.2020 16:00 11,5 °C 15,4 °C 11,7 °C 56 % 42 % 1013,9 hPa 0,00 l/m² 26,8 km/h (4 Bft) SW±67.5° 215 ° 15 min 8,97 klux 58 W/m² 3,0 °C
15.01.2020 16:15 11,2 °C 15,3 °C 11,5 °C 56 % 42 % 1013,9 hPa 0,00 l/m² 22,0 km/h (4 Bft) S±67.5° 190 ° 15 min 4,57 klux 30 W/m² 2,8 °C
15.01.2020 16:30 11,0 °C 15,1 °C 11,4 °C 57 % 42 % 1014,0 hPa 0,00 l/m² 24,8 km/h (4 Bft) S±45° 190 ° 0 min 1,89 klux 12 W/m² 2,8 °C
15.01.2020 16:45 10,6 °C 14,9 °C 10,8 °C 58 % 45 % 1014,0 hPa 0,00 l/m² 17,5 km/h (3 Bft) S-SW±45° 200 ° 0 min 752 lux 0 W/m² 2,7 °C
15.01.2020 17:00 10,5 °C 14,8 °C 10,7 °C 58 % 45 % 1014,0 hPa 0,00 l/m² 20,1 km/h (4 Bft) S-SW±45° 195 ° 0 min 180 lux 0 W/m² 2,6 °C
15.01.2020 17:15 10,3 °C 14,6 °C 10,2 °C 59 % 47 % 1015,1 hPa 0,00 l/m² 15,1 km/h (3 Bft) SW±45° 215 ° 0 min 25 lux 0 W/m² 2,6 °C
15.01.2020 17:30 10,3 °C 14,5 °C 10,7 °C 60 % 46 % 1015,1 hPa 0,00 l/m² 22,8 km/h (4 Bft) S-SW±45° 195 ° 0 min 0 lux 0 W/m² 2,9 °C
15.01.2020 17:45 10,4 °C 14,3 °C 10,7 °C 60 % 46 % 1015,0 hPa 0,00 l/m² 24,0 km/h (4 Bft) S-SW±45° 200 ° 0 min 0 lux 0 W/m² 3,0 °C
15.01.2020 18:00 10,2 °C 14,2 °C 10,5 °C 60 % 47 % 1015,1 hPa 0,00 l/m² 26,1 km/h (4 Bft) S±45° 185 ° 0 min 0 lux 0 W/m² 2,8 °C
15.01.2020 18:15 10,1 °C 14,0 °C 10,5 °C 62 % 48 % 1016,1 hPa 0,00 l/m² 25,8 km/h (4 Bft) S-SW±45° 200 ° 0 min 0 lux 0 W/m² 3,2 °C
15.01.2020 18:30 10,0 °C 13,9 °C 10,2 °C 63 % 50 % 1016,1 hPa 0,00 l/m² 28,3 km/h (4 Bft) S-SW±22.5 205 ° 0 min 0 lux 0 W/m² 3,3 °C
15.01.2020 18:45 9,9 °C 13,8 °C 10,1 °C 64 % 51 % 1016,1 hPa 0,00 l/m² 21,4 km/h (4 Bft) S-SW±67.5 195 ° 0 min 0 lux 0 W/m² 3,4 °C
15.01.2020 19:00 9,9 °C 13,8 °C 10,4 °C 65 % 51 % 1016,1 hPa 0,00 l/m² 24,5 km/h (4 Bft) S-SW±45° 200 ° 0 min 0 lux 0 W/m² 3,6 °C
15.01.2020 19:15 10,2 °C 13,7 °C 10,6 °C 64 % 50 % 1016,1 hPa 0,00 l/m² 28,1 km/h (4 Bft) S-SW±45° 205 ° 0 min 0 lux 0 W/m² 3,7 °C
15.01.2020 19:30 10,4 °C 13,6 °C 10,8 °C 64 % 50 % 1016,1 hPa 0,00 l/m² 23,9 km/h (4 Bft) S-SW±45° 210 ° 0 min 0 lux 0 W/m² 3,9 °C
15.01.2020 19:45 10,5 °C 13,6 °C 10,9 °C 64 % 50 % 1016,1 hPa 0,00 l/m² 27,5 km/h (4 Bft) S-SW±67.5 210 ° 0 min 0 lux 0 W/m² 4,0 °C
15.01.2020 20:00 10,6 °C 13,6 °C 11,1 °C 64 % 50 % 1017,1 hPa 0,00 l/m² 23,6 km/h (4 Bft) S-SW±67.5 195 ° 0 min 0 lux 0 W/m² 4,1 °C
15.01.2020 20:15 10,7 °C 13,6 °C 11,1 °C 64 % 50 % 1017,1 hPa 0,00 l/m² 20,7 km/h (4 Bft) S-SW±45° 210 ° 0 min 0 lux 0 W/m² 4,2 °C
15.01.2020 20:30 10,7 °C 13,6 °C 11,1 °C 64 % 50 % 1017,1 hPa 0,00 l/m² 20,1 km/h (4 Bft) S-SW±67.5 205 ° 0 min 0 lux 0 W/m² 4,2 °C
15.01.2020 20:45 10,7 °C 13,6 °C 11,1 °C 64 % 50 % 1017,1 hPa 0,00 l/m² 25,1 km/h (4 Bft) S±45° 185 ° 0 min 0 lux 0 W/m² 4,2 °C
15.01.2020 21:00 10,6 °C 13,6 °C 11,2 °C 64 % 51 % 1017,1 hPa 0,00 l/m² 17,8 km/h (3 Bft) S±45° 180 ° 0 min 0 lux 0 W/m² 4,1 °C
15.01.2020 21:15 10,7 °C 13,6 °C 11,1 °C 65 % 51 % 1017,1 hPa 0,00 l/m² 17,8 km/h (3 Bft) S±45° 185 ° 0 min 0 lux 0 W/m² 4,4 °C
15.01.2020 21:30 10,7 °C 13,6 °C 11,3 °C 65 % 50 % 1018,1 hPa 0,00 l/m² 19,7 km/h (3 Bft) S±45° 190 ° 0 min 0 lux 0 W/m² 4,4 °C
15.01.2020 21:45 10,9 °C 13,6 °C 11,3 °C 65 % 50 % 1018,1 hPa 0,00 l/m² 18,0 km/h (3 Bft) SW±67.5° 215 ° 0 min 0 lux 0 W/m² 4,6 °C
15.01.2020 22:00 11,0 °C 13,6 °C 11,5 °C 64 % 50 % 1018,1 hPa 0,00 l/m² 21,3 km/h (4 Bft) SW±67.5° 215 ° 0 min 0 lux 0 W/m² 4,5 °C
15.01.2020 22:15 10,9 °C 13,6 °C 11,4 °C 65 % 51 % 1018,1 hPa 0,00 l/m² 19,6 km/h (3 Bft) S-SW±45° 210 ° 0 min 0 lux 0 W/m² 4,6 °C
15.01.2020 22:30 10,8 °C 13,6 °C 11,3 °C 66 % 52 % 1019,1 hPa 0,00 l/m² 16,5 km/h (3 Bft) W±67.5° 280 ° 0 min 0 lux 0 W/m² 4,7 °C
15.01.2020 22:45 10,7 °C 13,6 °C 11,1 °C 66 % 53 % 1019,1 hPa 0,00 l/m² 15,5 km/h (3 Bft) W-NW±67.5 285 ° 0 min 0 lux 0 W/m² 4,6 °C
15.01.2020 23:00 10,5 °C 13,6 °C 10,9 °C 67 % 54 % 1019,2 hPa 0,00 l/m² 8,8 km/h (2 Bft) SW±67.5° 225 ° 0 min 0 lux 0 W/m² 4,6 °C
15.01.2020 23:15 10,4 °C 13,6 °C 10,8 °C 68 % 55 % 1019,2 hPa 0,00 l/m² 12,6 km/h (3 Bft) SW±45° 225 ° 0 min 0 lux 0 W/m² 4,8 °C
15.01.2020 23:30 10,4 °C 13,6 °C 10,7 °C 69 % 57 % 1020,2 hPa 0,00 l/m² 18,3 km/h (3 Bft) W-SW±45° 250 ° 0 min 0 lux 0 W/m² 5,0 °C
15.01.2020 23:45 10,2 °C 13,6 °C 10,4 °C 71 % 59 % 1020,2 hPa 0,00 l/m² 12,9 km/h (3 Bft) W±67.5° 265 ° 0 min 0 lux 0 W/m² 5,2 °C
_ Min-Zeit 08:16 00:00 08:16 15:15 14:15 02:30 - 23:00 - - - - - 15:30
Minimum _ 9,1 °C 11,1 °C 9,3 °C 51 % 37 % 1011,9 hPa - 8,8 km/h (2 Bft) - - - - - 2,4 °C
_ Max-Zeit 14:15 15:30 14:15 23:45 08:16 23:45 00:00 15:45 - - 09:45 13:45 13:45 23:45
Maximum _ 12,7 °C 15,5 °C 13,6 °C 71 % 59 % 1020,2 hPa 0,00 l/m² 31,5 km/h
S-SW (5 Bft)
- - 15 min 41,3 klux 269 W/m² 5,2 °C
Durchschnitt _ 10,5 °C 13,0 °C 10,9 °C 64 % 51 % 1014,3 hPa #0,00 l/m² 22,6 km/h (4 Bft) S - #6:45 h 7,71 klux 148 W/m² 4,0 °C